Regional Weather Roundup
Issued by NWS San Diego, CA

Home | Current Version | Previous Version | Text Only | Print | Product List | Glossary On
Versions: 1 2 3 4 5 6 7 8 9 10 11 12 13 14 15 16 17 18 19 20 21 22 23 24 25 26 27 28 29 30 31 32 33 34 35 36 37 38 39 40 41 42 43 44 45 46 47 48 49 50
000
ASUS46 KSGX 190010
RWRSGX

SAN DIEGO HOURLY WEATHER ROUNDUP
NATIONAL WEATHER SERVICE SAN DIEGO CA
400 PM PST THU DEC 18 2014

NOTE: "FAIR" INDICATES FEW OR NO CLOUDS BELOW 12,000 FEET WITH NO
SIGNIFICANT WEATHER AND/OR OBSTRUCTIONS TO VISIBILITY.

CAZ042-043-060-061-PZZ750-775-190100-

GREATER SAN DIEGO AREA

CITY           SKY/WX    TMP DP  RH WIND       PRES   REMARKS
LINDBERGH FLD  MOCLDY    64  50  60 W8        30.17R
POINT LOMA       N/A     61  51  69 W9          N/A
NATIONAL CITY    N/A     64  53  68 NW6       30.16R
IMPERIAL BEACH MOCLDY    63  51  65 SW7       30.16R
BROWN FIELD    MOCLDY    62  48  60 NW5       30.15R
MIRAMAR MCAS   MOCLDY    62  49  62 W8        30.15R
MONTGOMERY FLD MOCLDY    61  51  70 W9        30.15R

$$

NORTH SAN DIEGO COUNTY

CITY           SKY/WX    TMP DP  RH WIND       PRES   REMARKS
CAMP PENDLETON MOCLDY    60  49  66 W5        30.15R
OCEANSIDE AP   MOCLDY    61  49  64 W6        30.14R
OCEANSIDE HBR    N/A     61  53  73 S3        30.18R
VISTA            N/A     61  51  70 CALM      30.14R
CARLSBAD       MOCLDY    61  49  64 W7        30.14R
DEL MAR          N/A     62  53  72 CALM      30.18R
FALLBROOK        N/A     61  53  74 W2        30.15R
ESCONDIDO        N/A     61  49  64 SW3       30.17R
SAN MARCOS       N/A     61  49  65 NW1       30.14R
POWAY            N/A     61  50  68 N3        30.17R

$$

EAST SAN DIEGO COUNTY

CITY           SKY/WX    TMP DP  RH WIND       PRES   REMARKS
RAMONA         CLOUDY    57  47  69 W8        30.15R
SANTEE LAKES     N/A     62  51  66 W1        30.17R
LA MESA          N/A     62  52  70 NW2       30.10
JAMUL            N/A     58  49  71 CALM      30.16R
DESCANSO N       N/A     47  43  83 CALM      30.09R
MT. LAGUNA OBS   N/A     37  33  87 CALM      29.71R
CAMPO            N/A     52  42  69 W8        30.11R

$$

ORANGE COUNTY AND THE LOS ANGELES BASIN

CITY           SKY/WX    TMP DP  RH WIND       PRES   REMARKS
JOHN WAYNE AP  MOCLDY    64  48  56 W6        30.15R
LAGUNA BEACH     N/A     61  53  74 S1        30.12R
LAKE FOREST FR   N/A     59  44  56 CALM      30.06S
SANTA ANA        N/A     64  52  66 CALM      30.11R
HUNTINGTON BCH   N/A     61  53  73 SW3       30.17R
LOS ALAMITOS   CLOUDY    60  52  73 SW8       30.16R
FULLERTON      CLOUDY    63  46  54 SW6       30.14R
LONG BEACH     CLOUDY    61  50  67 SW7       30.15R
L.A. AP        PTCLDY    59  50  72 W7        30.15R
L.A. DOWNTOWN  CLOUDY    62  45  53 W5        30.14R

$$

THE INLAND EMPIRE

CITY           SKY/WX    TMP DP  RH WIND       PRES   REMARKS
CORONA         MOCLDY    60  45  57 CALM      30.15R
CHINO          MOCLDY    59  46  62 SW7       30.15S
ONTARIO        MOCLDY    61  41  47 W5        30.14R
SAN BERNARDINO PTCLDY    59  39  47 SW7       30.14R
RIVERSIDE AP   PTCLDY    60  44  55 W3        30.14R
RIV CYN CREST    N/A     62  51  66 W2          N/A
MORENO VALLEY    N/A     59  48  66 W5        29.32R
MARCH ARB      CLEAR     58  43  58 W6        30.14R
HORSETHIEF CYN   N/A     58  41  52 CALM      30.15S
PERRIS           N/A     60  46  61 NW1       30.15R
MENIFEE          N/A     59  48  67 S1        30.23R
HEMET EAST       N/A     57  39  51 CALM      30.18R
FRENCH VALLEY  MOCLDY    59  46  63 S3        30.15R
TEMECULA         N/A     60  50  70 SW6       30.09R

$$

SAN BERNARDINO AND RIVERSIDE COUNTY MOUNTAINS

CITY           SKY/WX    TMP DP  RH WIND       PRES   REMARKS
BIG BEAR AP    MOCLDY    36  30  80 CALM      30.16S
ANGELUS OAKS     N/A     38  34  86 CALM      30.21R
PINE COVE        N/A     36  35  96 CALM      30.25R

$$

SOUTHERN DESERT INCLUDING THE COACHELLA VALLEY

CITY           SKY/WX    TMP DP  RH WIND       PRES   REMARKS
PALM SPRINGS   CLEAR     65  32  29 SW5       30.13R
THOUSAND PALMS   N/A     67  42  40 NW3       30.09R
PALM DESERT      N/A     69  38  31 CALM      27.65S
THERMAL        CLEAR     67  36  31 S3        30.10R
BLYTHE         CLEAR     62  46  55 N8        30.13R
IMPERIAL AP    CLEAR     65  41  41 NE5       30.11S
EL CENTRO NAS  PTCLDY    66  44  45 N3        30.12R
YUMA AZ        PTCLDY    65  42  43 N7        30.11S
MEXICALI       CLEAR     64  43  45 NW3       30.13

$$

UPPER DESERT

CITY           SKY/WX    TMP DP  RH WIND       PRES   REMARKS
VICTORVILLE AP   N/A     50  36  57 N5        30.16S
HESPERIA         N/A     51  37  59 CALM      30.34R
APPLE VALLEY     N/A     52  34  51 CALM      30.19R
PALMDALE       CLEAR     53  32  44 CALM      30.17R
LANCASTER      CLEAR     53  34  48 E3        30.17R
EDWARDS AFB    PTCLDY    53  34  48 CALM      30.15S
DAGGETT        CLEAR     55  34  45 CALM      30.17R
29 PALMS N     PTCLDY    55  33  43 N8        30.21R
NEEDLES        CLEAR     61  39  44 N6        30.13S

$$

REGIONAL REPORTS

CITY           SKY/WX    TMP DP  RH WIND       PRES   REMARKS
SANTA BARBARA  MOCLDY    60  50  69 S6        30.15R
SANDBERG       MOCLDY    46  35  65 NE6       30.16S
MT. WILSON       N/A     41  41 100 MISG        N/A
LAS VEGAS NV   PTCLDY    54  38  54 CALM      30.12R
PHOENIX AZ     PTCLDY    60  41  49 W8        30.08S
TIJUANA        MOCLDY    61  46  59 W10       30.17S
ENSENADA NW      N/A     63  32  31 W3        30.13S

$$

OFFSHORE ISLANDS

CITY           SKY/WX    TMP DP  RH WIND       PRES   REMARKS
CATALINA ARPT  CLOUDY    52  51  97 CALM      30.16S
SAN CLEMENTE I MOCLDY    61  56  83 SW9       30.12S

$$

MARINE AND OFFSHORE BUOY REPORTS

STATION/POSITION SKY/WX   TEMP    WIND        PRES    SWELL
                          AIR SEA DIR/SP/G            HT/PER/DIR
                          (F)     (DEG/KT/KT) (MB)    (FT/S/D)
TANNER BANKS               63 65  320/ 12/ 14 1020.8R   7/290/14
S CLEMENTE BASIN           61 65  220/  6/  8 1020.9S   5/270/14
SAN NICOLAS IS.               62                N/A     5/300/11
SO. S. ROSA ISLA           60 62   60/  4/  6 1020.7R   7/11
W. S. BARBARA CH           60 61  120/  2/  4 1020.8R   8/290/14
S. MONICA BASIN            59 64  130/  6/  6 1021.4R   3/240/13
S PEDRO CHANNEL               65                N/A     2/260/11
DANA POINT                    64                N/A     2/220/14
CMP PENDLETON NS              64                N/A     2/230/14
OCEANSIDE OFFSHR              65                N/A     2/230/13
TORREY PINES OTR              65                N/A     3/270/11
LA JOLLA 1                 62 65  280/  4/  5 1021.2S
MISSION BAY BUOY              65                N/A     3/250/13
SAN DIEGO BAY                 65              1021.6F
POINT LOMA SOUTH              65                N/A     3/270/12

$$



USA.gov is the U.S. government's official web portal to all federal, state and local government web resources and services.